"Pseudo-MPEC" for P10HMT2

Created 2018 Jun 18 9:18:20 UT using Find_Orb

Click here for an explanation of pseudo-MPECs

 
 Astrometry: 
     P10HMT2  C2018 06 139HAstrometry;]^r+iU_+oY[QIKP[elD;=O)6A-E@/`Wm2]g!B64F51
     P10HMT2  C2018 06 13#A7)qrHcpd'EGqAN$fHgLY[^urP:p8V!c(IMyg.x5Y?=]_?J1x_JF51
     P10HMT2  C2018 06 13MWP#ruj8QE4n)3\keqJ_haD-e0+KZX\d5.0R1wgPlp=(;\SeAA@NF51
     P10HMT2  C2018 06 13k*YpdkS(Z;FDnW:kxredacted;j7na?cDr(?9._gTi$-E1iYMjXAF51
     P10HMT2 |C2018 06 17!rf=$H$C2H:h/#'wWKQ[2Qm0@lh;Ga'G$+p\)(+EvM.yT_VY7llh807
     P10HMT2 |C2018 06 17_nRY:Ata\!c:aYvj;[ik.wE=]!vNGB`jn?^imKoc?0vkQC\`@'WW807
     P10HMT2 |C2018 06 17]-+^*!EtJdY9XY?'B8kr.Ec`hyb[W@%Hsee[!C+fVxxi=%e0J]oF807
     P10HMT2 |C2018 06 18$]y$yZ5?R.yUVZVS?vc=tR5S=E#cLh/F/46(gD[vTo,b4)KRW$Ae807
     P10HMT2 |C2018 06 18AfBvOoPqXPrA?.$,,_(`/4HCqNOORpnM66#@_T7^c9#K=cWWkrft807
     P10HMT2 |C2018 06 18cQHmTcN\e_@$m1B,O6cSM2d^*xXnP'a05$_qX$1R(X%dm;NNEOCP807
     P10HMT2  C2018 06 18.33617 20 41 38.73 -18 38 13.1          20.1 GUNEOCPI52
     P10HMT2  C2018 06 18.34344 20 41 39.04 -18 38 20.2          21.3 GUNEOCPI52
     P10HMT2  C2018 06 18.34705 20 41 39.20 -18 38 23.7          20.5 GUNEOCPI52

Station data:
(807) Cerro Tololo Observatory, La Serena  (S30.169136 W70.805900)  Chile.
   1.5-m Ritchey-Chrétien.
(F51) Pan-STARRS 1, Haleakala  (N20.707235 W156.255910)  US/Hawaii.
   Observers N. Primak, A. Schultz, S. Watters, J. Thiel, T. Goggia. Measurer
   PS1 Science Consortium. 1.8-m Ritchey-Chrétien + CCD.
(I52) Steward Observatory, Mt. Lemmon Station  (N32.442547 W110.788920)
   US/Arizona.  Observers B. M. Africano, E. J. Christensen, D. C. Fuls, A.
   R. Gibbs, A. D. Grauer, J. A. Johnson, R. A. Kowalski, S. M. Larson, G. J.
   Leonard, R. L. Seaman, F. C. Shelly. 1.0-m reflector + CCD.

Orbital elements:  P10HMT2
   Perihelion 2018 Jun 12.784501 +/- 0.894 TT = 18:49:40 (JD 2458282.284501)
Epoch 2018 Jun 18.0 TT = JDT 2458287.5   Earth MOID: 0.5146   AutoNEOCP
M   1.14790 +/- 0.18                (J2000 ecliptic)
n   0.22009532 +/- 0.00607          Peri.  177.31369 +/- 0.56
a   2.71682813 +/- 0.05             Node   101.29699 +/- 0.09
e   0.4364079 +/- 0.00877           Incl.   10.41758 +/- 0.08
P   4.48                   H 20.3   G  0.15   U  9.3  
q 1.53118269 +/- 0.00489    Q 3.90247357 +/- 0.0945
From 13 observations 2018 June 13-18; mean residual 0".41
Residuals in arcseconds: 
180613 F51  .01+  .04-    180617 807  .20+  .38+    180618 I52  1.2+  .98+    
180613 F51  .02-  .10+    180617 807  .10-  .15-    180618 I52  .28-  .05-    
180613 F51  .10-  .04-    180618 807  .11-  .08+    180618 I52  .94-  .54-    
180613 F51  .10+  .04-    180618 807  .09-  .30-    
180617 807  .04-  .10-    180618 807  .12+  .37-    

Ephemerides (geocentric):
Date (UTC) HH   RA              Dec         delta   r     elong  mag " sig PA
---- -- -- --  -------------   -----------  ------ ------ -----  --- ---- ---
2018 06 18 09  20 41 40.570   -18 38 35.53  .61295 1.5320 138.9 21.3  .16  66
2018 06 18 10  20 41 43.145   -18 39 09.81  .61280 1.5321 139.0 21.3  .18  64
2018 06 18 11  20 41 45.716   -18 39 44.13  .61264 1.5321 139.0 21.3  .20  62
2018 06 18 12  20 41 48.283   -18 40 18.48  .61249 1.5321 139.0 21.3  .22  61
2018 06 18 13  20 41 50.847   -18 40 52.87  .61233 1.5321 139.1 21.3  .24  59
2018 06 18 14  20 41 53.407   -18 41 27.29  .61218 1.5321 139.1 21.3  .26  58
2018 06 18 15  20 41 55.963   -18 42 01.75  .61202 1.5321 139.1 21.3  .29  58
2018 06 18 16  20 41 58.515   -18 42 36.24  .61187 1.5321 139.2 21.3  .31  57
2018 06 18 17  20 42 01.064   -18 43 10.77  .61171 1.5321 139.2 21.3  .33  56
2018 06 18 18  20 42 03.610   -18 43 45.33  .61156 1.5322 139.2 21.3  .35  56
2018 06 18 19  20 42 06.151   -18 44 19.92  .61140 1.5322 139.3 21.3  .38  55
2018 06 18 20  20 42 08.689   -18 44 54.55  .61125 1.5322 139.3 21.3  .40  55
2018 06 18 21  20 42 11.223   -18 45 29.22  .61109 1.5322 139.3 21.3  .42  54
2018 06 18 22  20 42 13.754   -18 46 03.92  .61094 1.5322 139.4 21.3  .45  54
2018 06 18 23  20 42 16.280   -18 46 38.65  .61079 1.5322 139.4 21.3  .47  53
2018 06 19 00  20 42 18.803   -18 47 13.42  .61063 1.5322 139.4 21.3  .50  53
2018 06 19 01  20 42 21.323   -18 47 48.22  .61048 1.5323 139.5 21.3  .52  53
2018 06 19 02  20 42 23.839   -18 48 23.06  .61033 1.5323 139.5 21.3  .55  52
2018 06 19 03  20 42 26.351   -18 48 57.93  .61017 1.5323 139.5 21.3  .57  52
2018 06 19 04  20 42 28.859   -18 49 32.84  .61002 1.5323 139.6 21.3  .60  52
2018 06 19 05  20 42 31.363   -18 50 07.78  .60987 1.5323 139.6 21.3  .62  52
2018 06 19 06  20 42 33.864   -18 50 42.75  .60972 1.5323 139.6 21.3  .65  52
2018 06 19 07  20 42 36.362   -18 51 17.76  .60957 1.5323 139.7 21.3  .68  51
2018 06 19 08  20 42 38.855   -18 51 52.80  .60941 1.5324 139.7 21.3  .71  51
2018 06 19 09  20 42 41.345   -18 52 27.88  .60926 1.5324 139.7 21.3  .73  51
2018 06 19 10  20 42 43.831   -18 53 02.99  .60911 1.5324 139.7 21.3  .76  51
2018 06 19 11  20 42 46.313   -18 53 38.14  .60896 1.5324 139.8 21.3  .79  51
2018 06 19 12  20 42 48.792   -18 54 13.32  .60881 1.5324 139.8 21.3  .82  51
2018 06 19 13  20 42 51.267   -18 54 48.53  .60866 1.5324 139.8 21.3  .85  50
2018 06 19 14  20 42 53.738   -18 55 23.78  .60851 1.5325 139.9 21.3  .88  50
2018 06 19 15  20 42 56.206   -18 55 59.06  .60836 1.5325 139.9 21.3  .91  50
2018 06 19 16  20 42 58.670   -18 56 34.38  .60821 1.5325 139.9 21.3  .94  50
2018 06 19 17  20 43 01.130   -18 57 09.73  .60806 1.5325 140.0 21.3  .97  50
2018 06 19 18  20 43 03.586   -18 57 45.12  .60791 1.5325 140.0 21.3  1.0  50
2018 06 19 19  20 43 06.039   -18 58 20.53  .60776 1.5325 140.0 21.3  1.0  50
2018 06 19 20  20 43 08.488   -18 58 55.99  .60761 1.5325 140.1 21.3  1.1  50
2018 06 19 21  20 43 10.933   -18 59 31.47  .60746 1.5326 140.1 21.3  1.1  50
2018 06 19 22  20 43 13.375   -19 00 06.99  .60732 1.5326 140.1 21.3  1.1  50
2018 06 19 23  20 43 15.813   -19 00 42.55  .60717 1.5326 140.2 21.3  1.2  49
2018 06 20 00  20 43 18.247   -19 01 18.14  .60702 1.5326 140.2 21.3  1.2  49
2018 06 20 01  20 43 20.677   -19 01 53.76  .60687 1.5326 140.2 21.3  1.2  49
2018 06 20 02  20 43 23.104   -19 02 29.42  .60672 1.5326 140.3 21.3  1.3  49
2018 06 20 03  20 43 25.527   -19 03 05.11  .60658 1.5327 140.3 21.3  1.3  49
2018 06 20 04  20 43 27.946   -19 03 40.83  .60643 1.5327 140.3 21.3  1.3  49
2018 06 20 05  20 43 30.362   -19 04 16.59  .60628 1.5327 140.4 21.3  1.4  49
2018 06 20 06  20 43 32.774   -19 04 52.38  .60614 1.5327 140.4 21.3  1.4  49
2018 06 20 07  20 43 35.182   -19 05 28.20  .60599 1.5327 140.4 21.3  1.4  49
2018 06 20 08  20 43 37.586   -19 06 04.06  .60584 1.5327 140.5 21.3  1.5  49